Williams, AZ

2:28 PM MST on January 19, 2017 (GMT -0700)
Grand Canyon National Park

Weather History for KGCN - October, 2013

Change the Weather History Date:

Sunday, October 6, 2013

  Actual Average Record
Temperature  
Mean Temperature 44 °F -  
Max Temperature 68 °F 67 °F 82 °F (1979)
Min Temperature 19 °F 31 °F 19 °F (2013)
Degree Days  
Heating Degree Days 22    
Moisture  
Dew Point 14 °F    
Average Humidity 36    
Maximum Humidity 68    
Minimum Humidity 10    
Precipitation  
Precipitation 0.00 in - - ()
Sea Level Pressure  
Sea Level Pressure 30.30 in    
Wind  
Wind Speed 7 mph (NE)    
Max Wind Speed 15 mph    
Max Gust Speed 21 mph    
Visibility 10 miles    
Events      
Averages and records for this station are not official NWS values.
T = Trace of Precipitation, MM = Missing Value Source: NWS Daily Summary

Daily Weather History Graph

Daily Weather History Graph

Search for Another Location

Airport or City:

Trip Planner

Search our weather history database for the weather conditions in past years. The results will help you decide how hot, cold, wet, or windy it might be!

Date:

Astronomy

Oct. 06, 2013 Rise Set
Actual Time 6:27 AM MST 6:04 PM MST
Civil Twilight 6:02 AM MST 6:30 PM MST
Nautical Twilight 5:32 AM MST 6:59 PM MST
Astronomical Twilight 5:02 AM MST 7:29 PM MST
Moon 8:12 AM MST (10/6) 7:11 PM MST (10/6)
Length of Visible Light 12h 27m
Length of Day
11h 36m
Waxing Crescent, 4% of the Moon is Illuminated
Oct 6
Waxing Crescent
Oct 11
First Quarter
Oct 18
Full
Oct 26
Last Quarter
Nov 3
New

Hourly Weather History & Observations

Time (MST) Temp. Windchill Dew Point Humidity Pressure Visibility Wind Dir Wind Speed Gust Speed Precip Events Conditions
12:54 AM 28.0 °F 20.0 °F 10.9 °F 49% 30.35 in 10.0 mi ENE 8.1 mph - N/A   Clear
1:54 AM 25.0 °F 16.3 °F 10.0 °F 53% 30.35 in 10.0 mi NE 8.1 mph - N/A   Clear
2:54 AM 24.1 °F - 12.0 °F 60% 30.34 in 10.0 mi Calm Calm - N/A   Clear
3:54 AM 25.0 °F 19.3 °F 10.9 °F 55% 30.33 in 10.0 mi NE 4.6 mph - N/A   Clear
4:54 AM 19.9 °F 14.9 °F 10.9 °F 68% 30.35 in 10.0 mi NE 3.5 mph - N/A   Clear
5:54 AM 23.0 °F 17.0 °F 12.0 °F 63% 30.37 in 10.0 mi Variable 4.6 mph - N/A   Clear
6:54 AM 37.0 °F 32.4 °F 14.0 °F 39% 30.36 in 10.0 mi SE 5.8 mph - N/A   Clear
7:54 AM 46.9 °F - 17.1 °F 30% 30.35 in 10.0 mi Calm Calm - N/A   Clear
8:54 AM 52.0 °F - 15.1 °F 23% 30.30 in 10.0 mi East 11.5 mph 18.4 mph N/A   Clear
9:54 AM 55.9 °F - 16.0 °F 21% 30.31 in 10.0 mi ENE 11.5 mph - N/A   Clear
10:54 AM 59.0 °F - 17.1 °F 20% 30.33 in 10.0 mi NE 13.8 mph - N/A   Clear
11:54 AM 62.1 °F - 12.0 °F 14% 30.31 in 10.0 mi ENE 10.4 mph 20.7 mph N/A   Clear
12:54 PM 66.0 °F - 14.0 °F 13% 30.27 in 10.0 mi NE 15.0 mph - N/A   Clear
1:54 PM 68.0 °F - 8.1 °F 10% 30.25 in 10.0 mi ENE 13.8 mph - N/A   Clear
2:54 PM 66.9 °F - 10.0 °F 11% 30.25 in 10.0 mi NE 12.7 mph - N/A   Clear
3:54 PM 66.9 °F - 14.0 °F 13% 30.24 in 10.0 mi NE 11.5 mph - N/A   Clear
4:54 PM 64.0 °F - 12.9 °F 14% 30.27 in 10.0 mi ENE 11.5 mph - N/A   Clear
5:54 PM 57.0 °F - 14.0 °F 18% 30.29 in 10.0 mi NE 5.8 mph - N/A   Clear
6:54 PM 42.1 °F 40.2 °F 17.1 °F 37% 30.29 in 10.0 mi NE 3.5 mph - N/A   Clear
7:54 PM 36.0 °F - 16.0 °F 44% 30.28 in 10.0 mi Calm Calm - N/A   Clear
8:54 PM 34.0 °F - 15.1 °F 46% 30.26 in 10.0 mi Calm Calm - N/A   Clear
9:54 PM 32.0 °F - 15.1 °F 50% 30.25 in 10.0 mi Calm Calm - N/A   Clear
10:54 PM 32.0 °F - 16.0 °F 52% 30.23 in 10.0 mi Calm Calm - N/A   Clear
11:54 PM 34.0 °F - 18.0 °F 52% 30.20 in 10.0 mi Calm Calm - N/A   Clear